Back to catalog

ONEWEB-0655

AliveCommunicationsPO
NORAD 54677·PAYLOAD·🇬🇧 United Kingdom

Launched Dec 8, 2022 from Cape Canaveral Space Force Station

Loading…

Next Passes (next 24 hours)

TLE

FreshSource: CelesTrak SupGP

Epoch: Sep 14, 2026, 20:33 UTC

1 54677C 22166AM  26257.85674028  .00002065  00000+0  50053-2 0  2572
2 54677  87.9270 226.1371 0002336  81.6320 302.6613 13.21823618    17

Track ONEWEB-0655 in real time with AllMySat

Download on the App Store